Wind_Speed
13 12 12 11 7 7 10 10 12 12 11 9 7 6 7 8 7 3 6 7 7 6 6 4 2 1 1 2 3 4 5 5 5 5 5 4 3 2 2 2 2 2 2 4 1 3 4 7 8
12 14 13 11 8 9 10 14 15 13 10 9 7 9 10 13 8 9 8 7 5 4 5 5 3 3 4 4 5 5 5 5 5 5 5 4 4 3 4 3 5 5 4 3 3 5 6 8 8
11 14 14 8 11 11 9 16 15 13 12 10 11 10 10 10 13 12 10 9 8 6 4 3 5 7 8 8 7 8 7 7 5 6 6 5 4 4 5 5 5 7 6 5 6 8 7 7 8
11 15 13 13 10 11 11 15 14 15 13 11 11 13 12 10 14 13 16 15 13 11 11 7 8 11 11 10 10 11 10 8 6 7 7 5 5 5 7 7 8 10 10 8 8 9 9 9 7
14 15 17 11 13 12 13 15 16 15 14 11 12 16 16 14 13 16 17 17 16 17 15 12 12 13 15 15 15 13 12 12 9 8 8 7 6 6 7 10 12 12 10 11 10 10 9 8 7
16 16 12 15 13 16 15 17 17 15 14 13 15 16 17 15 15 16 17 17 16 16 17 18 19 18 16 15 14 15 14 13 11 10 8 8 8 8 8 10 13 15 13 11 10 7 4 5 5
16 16 16 15 13 18 19 17 17 15 14 13 15 17 17 14 15 17 18 18 16 15 16 14 14 15 14 13 13 13 14 16 13 11 11 10 10 11 11 12 15 16 14 11 9 6 5 3 2
15 16 17 15 15 17 17 16 17 16 16 14 14 12 13 13 16 17 18 18 17 15 13 14 14 14 15 14 13 14 15 16 14 14 14 13 12 13 14 15 15 16 14 11 9 8 8 6 3
14 17 15 15 15 19 16 16 17 18 18 16 15 16 18 17 17 17 16 17 15 12 11 10 14 15 15 16 16 16 16 18 19 17 15 15 15 15 15 17 18 17 16 13 12 11 10 8 5
16 19 15 15 15 16 19 17 18 20 19 18 16 16 18 18 18 18 17 15 14 12 13 13 15 17 18 21 21 21 21 20 20 20 20 19 18 17 18 19 20 20 18 17 16 15 15 13 9
18 20 15 15 16 16 17 18 20 21 22 19 19 20 18 17 16 15 14 11 10 11 13 14 16 18 20 21 23 22 21 23 24 24 24 23 23 22 21 20 21 22 22 22 21 20 18 17 13
19 17 16 17 19 20 20 20 23 24 22 21 21 18 18 18 17 15 14 13 13 14 15 16 16 17 18 20 22 25 28 29 27 25 25 25 24 24 24 24 24 23 21 24 22 23 20 19 16
19 17 17 18 21 25 25 24 24 25 19 21 19 20 19 18 15 14 14 14 12 12 15 17 18 19 20 22 22 23 25 26 28 31 30 29 24 25 25 26 29 27 30 24 23 26 24 21 18
18 17 17 20 20 24 26 23 27 17 15 19 19 18 18 17 14 15 14 13 13 13 12 12 13 16 19 21 22 22 22 23 24 26 27 30 30 29 27 27 32 30 31 30 26 23 26 24 21
20 23 21 20 20 24 22 26 25 13 17 18 16 15 14 12 14 14 13 15 16 12 12 11 13 15 17 18 20 22 24 26 27 30 30 29 30 29 27 29 24 28 35 37 34 30 26 26 23
17 20 20 12 12 10 15 28 10 9 16 12 12 13 11 10 13 15 16 17 15 13 14 14 15 17 19 20 22 23 25 25 25 25 29 31 29 29 28 26 20 17 14 17 31 30 31 34 25
20 21 21 15 10 13 13 21 9 6 14 15 14 13 14 14 14 16 18 17 15 14 16 18 19 21 22 24 27 29 31 30 29 29 27 24 29 27 28 21 18 22 15 13 28 27 32 35 28
13 17 19 18 14 17 20 29 23 17 20 23 22 22 21 19 17 16 16 17 16 15 16 19 22 24 25 28 32 34 35 31 30 28 23 23 27 28 30 28 24 19 19 22 28 27 25 24 22
25 23 25 25 20 25 28 34 31 26 27 29 28 27 26 23 22 21 19 17 17 17 19 22 24 26 28 30 33 32 31 28 28 23 22 21 25 28 31 33 29 20 16 19 25 27 34 33 38
23 25 29 28 21 22 29 38 34 30 30 30 29 30 28 26 25 24 22 20 18 19 21 24 26 26 28 28 28 27 26 24 21 20 22 19 21 24 26 35 24 18 16 18 22 23 21 34 35
29 28 27 26 24 24 29 42 31 19 16 20 21 22 27 29 27 24 22 20 19 20 22 25 26 25 25 22 21 20 19 17 14 16 16 16 18 21 18 23 28 25 21 22 20 18 18 33 32
31 25 25 23 20 14 13 13 35 25 14 18 16 23 21 19 17 16 17 16 17 19 22 24 22 21 20 16 16 15 14 10 10 8 10 17 14 14 10 13 20 21 19 21 19 22 18 25 30
25 29 22 19 17 19 25 14 18 26 15 6 6 12 15 18 19 15 14 15 17 18 20 18 18 18 13 13 12 11 9 12 11 11 10 11 10 14 16 18 16 20 22 22 21 19 24 20 31
12 16 16 18 13 6 22 20 14 9 4 6 13 6 11 14 17 16 12 13 15 17 15 14 16 13 10 8 8 9 10 12 13 12 11 11 13 14 16 18 22 22 23 21 23 18 22 22 17
13 7 2 4 3 6 8 12 24 15 15 13 9 5 8 12 13 11 11 12 14 14 11 12 12 11 8 6 6 8 11 13 12 13 14 15 15 17 18 20 23 24 23 25 23 19 20 22 27
27 21 8 6 4 4 4 8 5 4 12 23 19 12 12 13 11 11 10 11 13 11 9 9 11 9 6 7 6 7 9 13 14 16 15 16 18 20 21 21 23 26 26 25 25 25 19 19 18
32 28 27 10 4 3 7 15 28 30 16 24 11 12 10 13 11 11 10 11 12 10 7 10 11 8 7 8 8 9 10 12 14 15 15 16 19 21 23 23 23 23 25 24 21 23 20 23 21
34 25 15 17 4 4 6 9 17 20 14 7 4 4 9 13 12 11 11 12 12 10 7 12 12 11 9 9 11 11 12 14 15 17 19 21 28 31 32 31 30 23 24 24 24 24 16 27 33
26 30 20 16 21 5 1 5 10 6 20 9 3 4 6 10 11 11 12 12 12 9 7 11 10 11 11 13 15 14 14 14 16 17 21 26 30 30 30 32 32 34 27 22 28 18 26 26 34
19 23 32 20 7 11 13 11 5 9 16 15 2 5 5 8 11 12 13 12 11 10 8 10 11 9 9 10 13 15 15 14 12 15 20 10 9 6 15 13 22 25 21 13 19 20 31 30 31
Wind_Direction
243 242 242 241 226 223 219 191 189 184 188 204 230 252 270 263 179 200 177 199 220 205 185 164 146 3 357 360 353 348 350 347 350 350 347 342 317 250 262 194 194 213 186 165 325 11 357 357 354
247 242 237 236 233 229 220 202 192 192 204 214 249 278 276 249 219 184 165 170 179 196 212 206 205 251 255 274 290 304 321 325 333 333 328 329 315 270 233 209 224 218 209 237 295 309 327 340 347
240 240 238 230 234 233 229 208 193 195 215 234 257 270 286 272 232 199 193 189 202 206 201 212 243 255 259 264 263 271 276 283 303 319 311 306 302 269 223 218 228 212 222 262 296 306 317 323 333
238 237 228 234 240 214 216 205 199 202 218 239 256 274 280 288 256 236 228 229 228 231 236 227 238 249 259 260 262 266 265 253 258 286 291 292 290 266 233 218 229 237 253 270 288 294 303 311 319
231 235 232 246 240 209 195 189 198 212 219 233 255 275 285 280 264 247 247 245 244 244 241 234 235 243 252 258 258 253 257 254 254 254 267 279 276 263 242 230 239 248 256 273 280 288 296 301 304
230 231 235 248 246 210 202 202 206 216 230 247 265 277 282 278 262 250 250 256 259 257 254 248 245 241 249 256 257 259 257 255 257 255 254 265 271 269 259 251 245 255 262 272 278 283 291 301 299
232 235 244 252 239 216 214 213 213 228 241 255 274 280 278 269 258 255 255 259 260 263 260 255 241 241 244 253 255 260 264 261 257 260 271 262 266 270 267 257 254 258 261 268 274 265 270 266 285
231 235 243 245 233 219 221 218 220 231 243 256 269 271 278 276 257 255 257 258 259 263 263 248 239 243 246 251 258 259 259 259 253 250 256 265 270 271 272 268 262 260 260 260 251 241 248 226 229
242 242 246 245 231 222 226 218 222 237 248 257 269 281 281 275 268 266 267 264 260 248 241 247 241 239 242 245 248 254 255 256 257 257 259 268 270 270 272 271 266 260 256 249 245 230 226 239 233
239 247 255 252 241 232 233 231 233 241 252 259 271 282 283 273 265 267 270 272 274 271 261 258 251 245 249 250 250 253 255 255 257 263 263 262 263 263 265 267 267 263 253 245 243 230 231 243 245
246 250 250 249 239 237 237 232 235 244 252 265 273 274 270 264 259 259 263 269 268 275 282 276 266 258 256 252 249 251 253 255 256 257 260 262 264 264 259 259 264 264 262 254 242 233 232 247 251
255 257 254 247 242 242 240 242 248 254 264 267 266 264 260 259 260 257 254 254 262 271 274 277 271 267 265 263 261 258 257 257 257 258 259 258 258 264 263 256 256 250 251 254 240 227 229 243 251
260 258 253 249 244 252 254 254 259 261 269 262 256 254 257 255 255 251 256 267 272 274 284 276 268 267 265 262 261 261 263 263 262 260 258 262 261 259 260 255 250 251 249 231 235 244 236 237 242
262 263 259 253 255 256 259 261 256 263 249 254 255 257 257 254 258 256 262 272 276 285 287 283 277 268 264 266 266 264 264 263 265 267 266 264 260 257 257 254 256 242 239 238 229 237 244 234 239
262 269 268 271 272 264 266 259 255 277 241 249 259 261 260 261 259 268 269 269 285 284 301 292 281 277 272 266 265 267 267 270 268 266 262 259 258 255 253 252 262 256 236 245 240 230 229 238 232
266 274 276 266 270 268 251 264 255 255 241 259 267 263 259 260 276 272 267 272 278 289 301 297 287 283 280 279 279 277 273 272 272 272 267 261 255 252 253 250 240 256 250 239 232 232 236 232 229
264 262 271 276 250 256 264 269 230 218 254 256 266 262 261 258 274 280 269 269 275 284 293 299 301 295 291 295 295 293 292 291 285 279 272 264 253 246 244 227 231 206 195 222 226 235 237 218 220
262 264 274 272 263 251 253 265 268 259 258 254 257 264 264 264 271 275 269 270 270 274 284 292 298 298 297 296 294 292 291 290 285 275 269 263 244 237 235 225 202 219 207 202 221 231 231 202 219
263 266 272 269 271 277 265 265 268 267 261 258 258 259 264 268 264 270 280 279 270 272 283 293 298 299 299 295 292 288 286 284 278 275 267 258 242 237 233 227 196 201 220 222 225 232 241 239 233
255 260 264 276 285 277 279 276 273 271 272 271 269 265 265 265 264 267 276 274 271 279 288 294 299 302 293 288 284 282 282 280 275 266 258 247 243 237 237 232 210 202 199 212 224 218 250 228 224
252 254 264 280 294 283 290 287 290 284 281 280 273 266 256 257 259 263 264 265 270 279 286 294 299 296 289 283 279 276 276 273 259 248 249 250 238 249 261 255 235 209 206 216 234 237 231 226 211
252 262 272 276 286 284 297 293 297 303 301 300 287 253 255 242 231 244 242 253 268 278 287 293 298 294 287 286 278 272 257 234 205 213 242 235 234 240 216 213 200 217 221 231 240 249 238 229 218
258 283 276 277 268 277 281 273 286 304 322 11 287 249 233 227 218 240 234 253 267 281 289 294 297 292 290 276 272 258 220 186 193 211 219 223 226 236 232 229 226 227 230 235 242 245 235 250 201
259 261 255 256 264 255 277 242 287 297 294 340 334 295 233 225 208 208 229 255 273 285 285 293 289 294 277 272 258 232 194 204 206 212 214 222 236 246 243 237 235 238 236 244 249 252 250 249 229
216 219 234 230 211 231 258 233 258 289 293 308 351 260 211 199 193 208 231 259 276 276 278 285 288 271 253 240 215 214 204 217 225 226 222 233 241 253 256 247 240 240 241 249 255 248 238 256 217
232 230 201 203 204 244 222 236 247 280 291 302 289 284 217 203 210 219 237 266 274 265 262 273 269 254 236 226 213 206 215 227 238 242 243 251 256 254 253 253 246 247 248 255 248 254 236 223 263
232 228 233 243 263 303 248 271 279 282 285 317 257 234 244 222 213 229 244 266 268 257 261 256 257 248 241 233 229 224 226 232 240 246 256 266 264 259 259 259 247 243 251 256 239 245 222 226 225
228 234 208 214 188 235 260 274 272 304 350 297 30 226 238 217 216 232 248 262 263 254 262 255 256 257 249 252 251 244 237 239 242 245 244 247 262 261 260 255 249 240 257 257 244 232 238 215 227
216 224 221 228 225 181 211 249 273 140 7 353 169 183 196 205 216 240 254 259 261 251 258 258 258 257 254 257 259 256 255 253 251 255 267 273 275 264 251 247 232 240 244 247 241 239 236 217 216
239 217 222 225 225 224 229 230 219 210 354 16 65 169 178 193 205 238 253 259 264 246 246 254 264 261 253 259 270 272 268 260 258 267 284 304 275 219 220 193 207 216 235 228 223 229 212 225 227
Height
3144 3145 3145 3146 3151 3147 3145 3146 3146 3148 3150 3151 3152 3154 3156 3157 3158 3161 3157 3158 3159 3160 3161 3161 3162 3163 3164 3164 3164 3164 3164 3164 3165 3165 3165 3165 3165 3165 3166 3166 3166 3167 3167 3167 3167 3167 3167 3167 3167
3143 3144 3144 3144 3146 3145 3144 3144 3145 3147 3149 3150 3151 3152 3154 3156 3157 3157 3157 3158 3159 3160 3160 3161 3161 3162 3162 3163 3164 3164 3164 3164 3165 3165 3165 3165 3165 3166 3166 3167 3166 3167 3168 3168 3168 3168 3168 3168 3167
3142 3142 3144 3142 3142 3142 3143 3144 3145 3146 3147 3149 3150 3151 3152 3154 3155 3156 3157 3157 3158 3159 3159 3159 3160 3162 3162 3162 3163 3163 3164 3164 3164 3165 3165 3165 3165 3166 3166 3167 3166 3167 3168 3168 3169 3168 3168 3168 3167
3140 3142 3143 3140 3140 3140 3141 3143 3145 3145 3146 3147 3148 3149 3151 3152 3153 3154 3155 3155 3156 3157 3158 3158 3159 3160 3161 3161 3161 3162 3162 3162 3163 3164 3164 3164 3165 3165 3166 3167 3166 3167 3167 3168 3168 3168 3168 3168 3168
3138 3139 3139 3138 3139 3139 3139 3141 3142 3144 3144 3146 3147 3146 3148 3149 3150 3151 3152 3152 3153 3154 3156 3156 3157 3158 3158 3158 3159 3159 3160 3160 3161 3162 3163 3164 3164 3164 3164 3166 3166 3166 3167 3167 3167 3167 3167 3167 3167
3136 3137 3137 3136 3137 3137 3138 3139 3140 3141 3142 3144 3145 3144 3145 3146 3146 3148 3148 3150 3151 3151 3152 3153 3154 3154 3155 3156 3156 3158 3159 3159 3160 3160 3161 3162 3163 3163 3163 3164 3165 3165 3165 3166 3166 3166 3166 3166 3166
3135 3135 3134 3135 3135 3135 3135 3138 3138 3140 3140 3141 3142 3141 3141 3143 3144 3144 3145 3146 3148 3149 3149 3149 3150 3151 3152 3153 3154 3155 3157 3157 3158 3159 3160 3160 3161 3162 3163 3163 3163 3164 3165 3166 3165 3165 3165 3165 3166
3134 3134 3132 3133 3134 3134 3134 3135 3137 3138 3138 3139 3139 3138 3138 3139 3140 3141 3142 3143 3144 3145 3146 3146 3147 3149 3149 3150 3152 3153 3154 3155 3155 3156 3158 3159 3159 3160 3161 3161 3161 3162 3164 3165 3164 3164 3164 3164 3165
3132 3133 3131 3131 3131 3132 3132 3133 3134 3134 3135 3136 3136 3135 3134 3135 3136 3137 3138 3139 3141 3142 3143 3144 3145 3146 3146 3147 3148 3149 3150 3153 3153 3154 3156 3157 3157 3158 3159 3159 3159 3160 3162 3163 3163 3162 3163 3164 3164
3129 3129 3130 3130 3130 3129 3129 3130 3130 3131 3131 3132 3132 3132 3131 3131 3132 3132 3133 3135 3135 3137 3138 3140 3141 3142 3143 3143 3145 3146 3148 3149 3150 3151 3152 3152 3153 3154 3155 3155 3156 3157 3159 3160 3161 3161 3162 3162 3163
3126 3126 3128 3127 3127 3127 3126 3126 3126 3127 3127 3128 3129 3129 3127 3128 3128 3129 3130 3132 3132 3133 3134 3135 3136 3137 3138 3139 3140 3142 3142 3143 3144 3146 3147 3148 3149 3150 3151 3152 3152 3154 3155 3157 3158 3158 3159 3160 3161
3124 3124 3124 3124 3124 3123 3123 3123 3123 3122 3124 3124 3124 3124 3124 3124 3125 3126 3128 3129 3130 3130 3131 3131 3132 3132 3133 3134 3135 3136 3137 3138 3139 3141 3142 3143 3145 3146 3147 3147 3148 3149 3151 3153 3155 3156 3157 3158 3159
3120 3122 3121 3121 3120 3120 3120 3119 3119 3118 3120 3118 3119 3119 3120 3121 3122 3123 3124 3125 3126 3127 3127 3127 3128 3128 3128 3129 3131 3132 3132 3133 3134 3135 3137 3138 3140 3142 3142 3143 3143 3144 3146 3149 3151 3153 3154 3155 3157
3118 3118 3118 3117 3117 3116 3115 3116 3113 3116 3115 3114 3115 3115 3116 3117 3118 3119 3120 3120 3122 3123 3124 3124 3124 3124 3125 3125 3126 3126 3126 3127 3128 3129 3131 3132 3134 3137 3137 3139 3139 3137 3142 3145 3146 3149 3152 3152 3153
3115 3114 3114 3114 3113 3111 3112 3109 3108 3113 3111 3110 3111 3111 3111 3113 3114 3115 3116 3116 3118 3119 3119 3119 3120 3121 3121 3121 3121 3122 3121 3121 3123 3124 3125 3126 3127 3129 3132 3134 3135 3136 3138 3138 3140 3142 3146 3149 3150
3112 3112 3110 3111 3108 3107 3107 3102 3110 3108 3107 3108 3108 3107 3108 3109 3109 3111 3112 3113 3114 3113 3114 3115 3115 3116 3116 3116 3115 3115 3116 3116 3117 3117 3118 3119 3121 3123 3126 3129 3130 3132 3135 3132 3132 3136 3141 3144 3146
3108 3107 3108 3108 3107 3105 3104 3100 3104 3104 3105 3105 3105 3105 3105 3105 3105 3106 3108 3109 3110 3109 3110 3110 3110 3110 3110 3109 3108 3107 3108 3109 3109 3109 3110 3112 3114 3117 3120 3124 3126 3125 3125 3129 3131 3132 3133 3137 3140
3104 3105 3103 3104 3105 3102 3099 3094 3098 3100 3099 3099 3100 3100 3100 3101 3102 3102 3103 3104 3105 3106 3106 3106 3106 3104 3103 3102 3101 3101 3100 3100 3101 3101 3103 3105 3107 3110 3113 3117 3119 3123 3121 3123 3128 3131 3129 3132 3134
3100 3100 3100 3099 3102 3098 3095 3090 3091 3094 3093 3092 3092 3093 3094 3096 3097 3097 3098 3099 3100 3101 3102 3101 3100 3098 3097 3096 3094 3092 3092 3093 3094 3095 3096 3098 3100 3103 3107 3108 3112 3118 3120 3120 3123 3127 3132 3129 3132
3095 3094 3094 3094 3097 3095 3090 3081 3083 3085 3085 3085 3085 3085 3087 3088 3090 3092 3093 3094 3095 3096 3095 3094 3093 3093 3092 3089 3087 3086 3086 3086 3087 3089 3090 3092 3095 3098 3100 3097 3100 3111 3116 3119 3122 3124 3126 3126 3127
3091 3090 3090 3093 3092 3091 3086 3073 3075 3077 3077 3077 3075 3076 3078 3081 3084 3086 3088 3089 3090 3090 3090 3089 3088 3087 3085 3084 3083 3082 3080 3082 3083 3084 3086 3089 3091 3094 3095 3094 3103 3110 3112 3116 3119 3120 3122 3122 3123
3087 3089 3089 3088 3089 3088 3087 3074 3066 3071 3070 3070 3069 3069 3072 3074 3077 3080 3082 3085 3085 3086 3085 3084 3083 3082 3081 3079 3079 3077 3078 3078 3080 3081 3083 3087 3090 3093 3094 3096 3101 3107 3108 3111 3115 3115 3114 3115 3118
3083 3085 3086 3086 3084 3084 3083 3083 3062 3066 3064 3063 3062 3064 3066 3069 3073 3076 3078 3080 3081 3081 3080 3079 3079 3079 3077 3078 3076 3075 3075 3076 3078 3080 3083 3086 3088 3090 3093 3096 3098 3101 3103 3106 3109 3111 3110 3114 3116
3082 3080 3081 3081 3082 3078 3077 3079 3061 3064 3063 3062 3064 3062 3063 3065 3067 3071 3074 3076 3077 3077 3076 3076 3076 3075 3076 3074 3074 3074 3074 3077 3078 3079 3081 3085 3087 3089 3091 3094 3095 3097 3099 3102 3104 3106 3107 3109 3112
3076 3077 3079 3080 3080 3073 3071 3072 3060 3061 3061 3061 3061 3062 3062 3064 3066 3068 3071 3072 3073 3073 3073 3073 3074 3074 3074 3073 3072 3073 3074 3077 3079 3080 3082 3083 3085 3087 3088 3090 3093 3095 3097 3099 3100 3102 3104 3105 3109
3069 3072 3072 3076 3077 3069 3067 3063 3057 3057 3058 3059 3059 3060 3060 3062 3064 3066 3068 3069 3070 3071 3071 3072 3073 3074 3072 3073 3072 3072 3073 3075 3077 3078 3080 3081 3083 3083 3084 3087 3089 3091 3093 3095 3096 3097 3098 3102 3106
3062 3062 3068 3067 3068 3068 3062 3059 3058 3055 3055 3054 3049 3055 3058 3061 3062 3064 3066 3066 3068 3069 3069 3071 3072 3071 3071 3072 3071 3070 3071 3072 3074 3075 3076 3077 3078 3078 3080 3082 3084 3086 3088 3090 3093 3094 3095 3100 3104
3054 3059 3063 3063 3065 3064 3056 3056 3056 3053 3053 3050 3050 3052 3054 3058 3060 3062 3064 3065 3066 3067 3067 3069 3070 3069 3069 3070 3069 3068 3068 3069 3069 3070 3070 3069 3070 3070 3071 3074 3078 3081 3083 3086 3090 3093 3094 3095 3102
3046 3051 3053 3054 3054 3054 3056 3051 3050 3051 3050 3049 3049 3051 3052 3055 3058 3061 3062 3063 3063 3064 3064 3067 3067 3067 3066 3066 3066 3066 3066 3067 3067 3067 3066 3064 3061 3058 3059 3063 3069 3075 3079 3082 3085 3088 3088 3093 3096
3041 3043 3048 3048 3048 3048 3048 3046 3048 3048 3051 3050 3048 3049 3051 3053 3056 3058 3060 3061 3062 3062 3063 3064 3065 3065 3064 3064 3064 3063 3062 3063 3064 3064 3061 3057 3053 3054 3054 3059 3064 3071 3076 3078 3080 3085 3085 3090 3093